Blue Bucket Stampede - 22 miles in Small Groups

Station: Hwy 26 & Compressor - T Race

Distance: 22 Miles

Release: 10-Sep-2020 09:10

Weather Release:    Arrival:

Wind at Release:     Wind at Arrival:

Temp at Release: °    Temp at Arrival: °

Lofts: 130

Birds: 280

Clocked: 282

Brought Back Released in small Group 9:10-9:45
Drops Pos Breeder Pigeon Name Color Sex Ent Arrival Speed To Win Elg PdOp1Op2
1 Highland Loft - NY 2010-AU20-DZ N L1655108 X 24191 BBPN H 1 09:40:34.11 1266.663 00:00:00 Yes
2 Crooked River Challenge - OR 4232-AU20-CORP 4136 x 4674 BC H 1 09:41:10.69 1241.895 00:00:37 Yes
3 Irishsyndicatelofts - AZ 1016-AU20-IRSH Fame And Glory 1327 BC H 1 09:41:11.84 1241.132 00:00:38 Yes
4 Mesopotamia Loft - MN 1723-AU20-VITA BBPW H 1 09:41:21.49 1234.766 00:00:47 Yes
5 C.D. Dovecote - MN 0008-AU20-DOVE 952 X 3738 BB C 1 09:42:13.41 1201.608 00:01:39 Yes
6 B H Flying Partnership - NC 1251-AU20-SMCC SBB H 1 09:42:13.67 1201.446 00:01:40 Yes
7 G & L Loft - OR 1551-AU20-WPC BB C 1 09:42:14.82 1200.732 00:01:41 Yes
8 Jiang Tou Loft - TN 8904-AU20-TOU πŸŸ₯πŸŸ₯独醉πŸŸ₯πŸŸ₯ BB C 1 09:42:22.56 1195.948 00:01:48 Yes
9 Igor & Sons Loft - OR 0221-AU20-OTC BB H 1 09:42:22.88 1195.751 00:01:49 Yes
10 Bunk / Mats - CA 0502-AU20-OCF BB H 1 09:42:24.31 1194.871 00:01:50 Yes
11 Clausing - FL 0192-IF20-CLAU BB C 1 09:42:24.43 1194.797 00:01:50 Yes
12 Liu Loft - NC 0107-AU20-KVLI BC C 1 09:42:25.64 1194.054 00:01:52 Yes
13 Sooner Challenge - OK 40110-AU20-ARPU 8542 x 7982 BC H 1 09:42:25.78 1193.968 00:01:52 Yes
14 Sun Loft - MA 8818-IF20-SUNL SIL C 1 09:42:26.28 1193.662 00:01:52 Yes
15 John Gutierrez - NM 0214-AU20-GUTZ Kan/817 BB H 1 09:42:27.25 1193.067 00:01:53 Yes
16 Sunshine Loft 2 - SC 0544-AU20-GRPC Sr - Bullet 2 BB H 1 09:42:27.48 1192.926 00:01:53 Missing
17 Bunk / Mats - CA 28102-AU20-JEDD DC H 2 09:42:27.58 1192.865 00:01:53 Lost
18 Nanez Family Loft - WI 0010-AU20-NFL BB H 1 09:42:27.85 1192.700 00:01:54 Yes
19 Bunk / Mats - CA 0501-AU20-OCF BB H 3 09:42:28.44 1192.338 00:01:54 Yes
20 A-Lo-Loft - NY 0018-AU20-ALOL ☯️3984☯️ DC H 1 09:42:28.54 1192.277 00:01:54 Yes
21 Bud & Barry - MI 0750-AU20-NSL BB H 1 09:42:29.19 1191.880 00:01:55 Yes
22 Lone Oak Loft - TX 2025-AU20-LOL Naz-Natty-4 BBPW H 1 09:42:31.53 1190.451 00:01:57 Lost
23 A P C Loft - TX 20032-AU20-APCL SBB H 1 09:42:31.57 1190.426 00:01:57 Lost
24 Irishsyndicatelofts - AZ 1068-AU20-IRSH Champion Ornat BC H 2 09:42:32.14 1190.079 00:01:58 Yes
25 Flying Glory Loft - WA 0150-AU20-WACO BB C 1 09:42:38.43 1186.256 00:02:04 Yes
26 Zheng Loft - FL 0029-IF20-ZHEN LBC C 1 09:42:39.25 1185.760 00:02:05 Lost
27 Pleasant Task Farm - PA 0036-AU20-PTF Florian 821 X 13708 BB H 1 09:42:40.03 1185.288 00:02:06 Lost
28 Wtj Loft - TX 0161-AU20-WTJ 452πŸ•Š BB H 1 09:42:40.37 1185.082 00:02:06 Yes
29 PNWC - ID 0077-AU20-PNWC Pair# 2 SBB H 1 09:42:40.74 1184.859 00:02:07 Yes
30 A P C Loft - TX 20013-AU20-APCL BB H 2 09:42:41.28 1184.533 00:02:07 Yes
31 R & D Racing 2 - ON 4404-AU20-AA BB H 1 09:42:42.38 1183.869 00:02:08 Yes
32 Al Shulman - CA 2145-AU20-WSJ BBPW H 1 09:42:43.17 1183.392 00:02:09 Yes
33 Jiang Tou Loft - TN 8901-AU20-TOU πŸŸ₯πŸŸ₯独醉πŸŸ₯πŸŸ₯ LBC H 2 09:42:43.63 1183.115 00:02:10 Yes
34 day-Stars loft - WA 2353-AU20-PNW DC H 1 09:42:44.59 1182.537 00:02:10 Yes
35 Devore Loft - GA 9927-AU20-DEVO 402x352 BB H 1 09:42:45.23 1182.152 00:02:11 Yes
36 Tian Loft - FL 30131-AU20-ARPU BB H 1 09:42:45.99 1181.695 00:02:12 Yes
37 Irishsyndicatelofts - AZ 1086-AU20-IRSH 7777703 Treasure Beach BB H 3 09:42:46.11 1181.623 00:02:12 Yes
38 Ocean Fly King - NS 11562-CU20-CRPU DC H 1 09:42:46.48 1181.400 00:02:12 Yes
39 Tyler Loft - TX 6187-AU20-ARPU BBTW H 1 09:42:47.31 1180.902 00:02:13 Lost
40 Nanez Family Loft - WI 0021-AU20-NFL BB H 2 09:42:55.50 1176.006 00:02:21 Yes
41 Tex-Mex Loft - TX 0309-AU20-NSL Alex BB C 1 09:42:59.13 1173.849 00:02:25 Lost
42 Tucson Triple Challenge - AZ 1190-AU20-JEDD BB C 1 09:43:03.28 1171.393 00:02:29 Yes
43 Bunk / Mats - CA 28108-AU20-JEDD BB C 4 09:43:17.80 1162.879 00:02:44 Yes
44 Scrub Family Loft - MN 0052-AU20-SCRB Black Eye DC H 1 09:43:23.82 1159.386 00:02:50 Yes
45 Paul Meyer - WA 0812-AU20-TCW BC C 1 09:43:43.12 1148.325 00:03:09 Yes
46 W C R - UT 2409-AU20-WFA BCSP H 1 09:43:56.08 1141.016 00:03:22 Lost
47 Baldwin & Tillson - NC 0087-AU20-TENT JACK-8114(287) BB C 1 09:44:00.22 1138.701 00:03:26 Yes
48 Calsyn & Scroggins - IL 0003-AU20-RRV DC C 1 09:44:07.55 1134.624 00:03:33 Yes
49 Mt. Hood Syndicate - WA 14773-AU20-JEDD Pink Fraulein BB H 1 09:44:20.74 1127.362 00:03:47 Lost
50 Brooklyn Loft - NY 0477-IF20-BQC BBPW C 1 09:45:00.27 1106.143 00:04:26 Lost
51 Shi Loft - PA 1716-IF20-ERIE 560-852 BBTW H 1 09:46:46.68 1052.803 00:06:13 Inj
52 PNWC - ID 0015-AU20-PNWC Pair# 2 BB H 2 09:48:44.40 999.484 00:08:10 Yes
53 Paul Yahiku - OR 19110-AU20-YAHI 16132 X 17112 BB H 1 09:49:04.38 990.966 00:08:30 Yes
54 Jeff Bailey - CA 5102-AU20-SRP Bella BBPW H 1 09:49:04.55 990.894 00:08:30 Yes
55 Andy Owen - GA 0013-AU20-OWEN BB H 1 09:49:05.62 990.442 00:08:32 Yes
56 R & D Racing 2 - ON 4483-AU20-AA BB H 2 09:49:06.04 990.264 00:08:32 Yes
57 Na Hoa - HI 1039-AU20-AUB BB C 1 09:49:06.08 990.248 00:08:32 Yes
58 Racing Pigeon Mall - WA 1004-AU20-RPM BLK C 1 09:49:07.04 989.843 00:08:33 Yes
59 πŸ‡¨πŸ‡ΊπŸ‘€carlito El Animal $ Dammay Loft - FL 0012-AU20-ANIM Suaves 242 x 927 BCTW H 1 09:49:07.55 989.627 00:08:33 Yes
60 Evergreen Loft - WA 0104-AU20-OTC BC H 1 09:49:07.60 989.606 00:08:33 Yes
61 S-And M - MI 1213-AU20-SMCC BCP H 1 09:49:09.85 988.659 00:08:36 Lost
62 John Ceciliani - OR 20002-AU20-BORD 3147 x 3143 Borderjumper BBT H 1 09:49:12.28 987.638 00:08:38 Yes
63 PNWC - ID 1203-AU20-IDA Pair# J16 BBW C 3 09:49:13.36 987.184 00:08:39 Yes
64 D-Apostles Loft πŸ‡ΊπŸ‡ΈπŸ‡΅πŸ‡· - TX 0258-AU20-NSL D-Gamble BB C 1 09:49:13.57 987.096 00:08:39 Yes
65 The X-Loft - IN 0065-AU20-XLFT 846-7595(dau YP2) ❌ BB H 1 09:49:14.42 986.740 00:08:40 Yes
66 Scrub Family Loft - MN 0053-AU20-SCRB Crazy Eye DC C 2 09:49:16.34 985.936 00:08:42 Lost
67 Julio Medina - TX 0035-AU20-JJML BC H 1 09:49:19.10 984.782 00:08:45 Yes
68 Nemelka Racing Pigeon Loft - UT 0008-AU20-NRPL Knives Out BB C 1 09:49:21.76 983.673 00:08:48 Yes
69 S & J Platt - OR 18406-AU20-PLAT BB H 1 09:49:29.68 980.386 00:08:56 Yes
70 Brooklyn Loft - NY 0425-IF20-BQC BBPW H 2 09:49:34.74 978.297 00:09:01 Lost
71 Sports House Pigeons - CA 5506-AU20-JEDD Cxk-D BB H 1 09:49:35.26 978.082 00:09:01 Yes
72 Scrub Family Loft - MN 0099-AU20-SCRB Black Night DC C 3 09:49:41.09 975.688 00:09:07 Yes
73 Racine Zhong Xiao Loft - WI 3134-AU20-RAC BB C 1 09:49:41.42 975.552 00:09:07 Yes
74 PNWC - ID 1213-AU20-IDA Pair# J5 BC H 4 09:49:45.27 973.978 00:09:11 Yes
75 Great Wall - MS 14018-AU20-TONY BB H 1 09:49:47.58 973.035 00:09:13 Yes
76 The X-Loft - IN 0063-AU20-XLFT 1583 - GB 651 ❌ DCPW H 2 09:49:47.76 972.962 00:09:14 Yes
77 Greek Connection - SC 0327-AU20-GREK 1207 x SWINGLEY BB H 1 09:49:48.45 972.681 00:09:14 Yes
78 Julio Medina - TX 0038-AU20-JJML BC C 2 09:49:49.36 972.311 00:09:15 Lost
79 Longjohn Loft - OK 1181-AU20-FOYS LBC C 1 09:50:03.89 966.434 00:09:30 Yes
80 Peters - GA 0059-AU20-PETE RED ROCKET RED C 1 09:50:09.38 964.231 00:09:35 Yes
81 M & Y Connection - MI 0132-AU20-MY 8 x 1295 SIL C 1 09:50:14.07 962.358 00:09:40 Yes
82 Chen & Liu Family - CT 0005-IF20-LIU BB H 1 09:50:25.26 957.918 00:09:51 Yes
83 Anatoly's Loft - OR 2025-AU20-PNW BB C 1 09:55:08.10 857.871 00:14:34 Yes
84 Michigan Race Team - MI 1210-AU20-SMCC BBP H 1 09:57:08.78 821.273 00:16:35 Yes
85 Emerson/Donnelly - SC 0310-AU20-MERL BB H 1 09:57:09.74 820.994 00:16:36 Yes
86 John Karnofel - CA 0208-AU20-KFL Rainman Delight-2 BC C 1 09:57:10.68 820.722 00:16:37 Yes
87 Redtex - TX 0264-AU20-RTEX first responder BB H 1 09:57:11.36 820.524 00:16:37 Yes
88 PNWC - ID 0070-AU20-PNWC Pair# 23 BC H 5 09:57:12.88 820.084 00:16:39 Yes
89 98 M J Loft - PA 7763-AU20-FOYS LBC H 1 09:57:13.25 819.977 00:16:39 Yes
90 Igor & Sons Loft - OR 0242-AU20-OTC BB C 2 09:57:14.77 819.537 00:16:41 Yes
91 Bunk / Mats - CA 0515-AU20-OCF RC H 5 09:57:15.09 819.445 00:16:41 Lost
92 Mesopotamia Loft - MN 1706-AU20-VITA BB H 2 09:57:15.55 819.312 00:16:41 Yes
93 Scrub Family Loft - MN 0065-AU20-SCRB Another One DC H 4 09:57:17.42 818.772 00:16:43 Yes
94 A & B Of Boring Or - OR 0113-AU20-OTC BC C 1 09:57:20.01 818.025 00:16:46 Yes
95 Rachel Olivieri - CA 20523-AU20-LAKE 23 x 003 BB C 1 09:57:20.19 817.973 00:16:46 Lost
96 Drama Queen Loft - TX 1085-AU20-GCI 2812 x 24347 BB H 1 09:57:20.75 817.812 00:16:47 Yes
97 Devore Loft - GA 9918-AU20-DEVO 43rd BB H 2 09:57:22.29 817.369 00:16:48 Yes
98 Van Den Bossche Brothers - ME 0001-IF20-VDB Cracker LBC C 1 09:57:30.31 815.069 00:16:56 Yes
99 A P C Loft - TX 20068-AU20-APCL SBPW H 3 09:57:31.93 814.606 00:16:58 Yes
100 Jimmy Zheng Loft - MS 0073-AU20-JIMY BB H 1 09:57:34.27 813.938 00:17:00 Lost

There are 221 bird records

Note: These Race Results are unofficial and subject to change until verified by the Race Committee and declared final.



windy
Click for Forecast for 97754 from weatherUSA